Time,TemperatureF,DewpointF,PressureIn,WindDirection,WindDirectionDegrees,WindSpeedMPH,WindSpeedGustMPH,Humidity,HourlyPrecipIn,Conditions,Clouds,dailyrainin,SolarRadiationWatts/m^2,SoftwareType,DateUTC
2013-02-01 00:03:00,34.0,15.0,-100.00,SW,234,13.0,26.0,45,0.00,,,0.29,0.000000,,2013-02-01 05:03:00,
2013-02-01 00:12:00,33.0,15.0,-100.00,WSW,238,11.0,21.0,48,0.00,,,0.29,0.000000,,2013-02-01 05:12:00,
2013-02-01 00:32:00,33.0,15.0,-100.00,WSW,238,11.0,21.0,48,0.00,,,0.29,0.000000,,2013-02-01 05:32:00,
2013-02-01 00:42:00,33.0,15.0,-100.00,WSW,238,11.0,21.0,48,0.00,,,0.29,0.000000,,2013-02-01 05:42:00,
2013-02-01 00:52:00,33.0,15.0,-100.00,WSW,238,11.0,21.0,48,0.00,,,0.29,0.000000,,2013-02-01 05:52:00,
2013-02-01 01:02:00,33.0,15.0,-100.00,WSW,238,11.0,21.0,48,0.00,,,0.29,0.000000,,2013-02-01 06:02:00,
2013-02-01 01:12:00,32.0,15.0,-100.00,SW,236,10.0,26.0,48,0.00,,,0.29,0.000000,,2013-02-01 06:12:00,
2013-02-01 01:32:00,32.0,15.0,-100.00,SW,236,10.0,26.0,48,0.00,,,0.29,0.000000,,2013-02-01 06:32:00,
2013-02-01 01:42:00,32.0,15.0,-100.00,SW,236,10.0,26.0,48,0.00,,,0.29,0.000000,,2013-02-01 06:42:00,
2013-02-01 01:52:00,32.0,15.0,-100.00,SW,236,10.0,26.0,48,0.00,,,0.29,0.000000,,2013-02-01 06:52:00,
2013-02-01 02:02:00,32.0,15.0,-100.00,SW,236,10.0,26.0,48,0.00,,,0.29,0.000000,,2013-02-01 07:02:00,
2013-02-01 02:32:00,31.0,12.0,-100.00,SW,236,9.0,19.0,44,0.00,,,0.29,0.000000,,2013-02-01 07:32:00,
2013-02-01 02:42:00,31.0,12.0,-100.00,SW,236,9.0,19.0,44,0.00,,,0.29,0.000000,,2013-02-01 07:42:00,
2013-02-01 02:52:00,31.0,12.0,-100.00,SW,236,9.0,19.0,44,0.00,,,0.29,0.000000,,2013-02-01 07:52:00,
2013-02-01 03:01:00,31.0,12.0,-100.00,SW,236,9.0,19.0,44,0.00,,,0.29,0.000000,,2013-02-01 08:01:00,
2013-02-01 03:11:00,31.0,12.0,-100.00,SW,236,9.0,19.0,44,0.00,,,0.29,0.000000,,2013-02-01 08:11:00,
2013-02-01 03:32:00,31.0,13.0,-100.00,WSW,237,10.0,22.0,46,0.00,,,0.29,0.000000,,2013-02-01 08:32:00,
2013-02-01 03:42:00,31.0,13.0,-100.00,WSW,237,10.0,22.0,46,0.00,,,0.29,0.000000,,2013-02-01 08:42:00,
2013-02-01 03:52:00,31.0,13.0,-100.00,WSW,237,10.0,22.0,46,0.00,,,0.29,0.000000,,2013-02-01 08:52:00,
2013-02-01 04:02:00,31.0,13.0,-100.00,WSW,237,10.0,22.0,46,0.00,,,0.29,0.000000,,2013-02-01 09:02:00,
2013-02-01 04:11:00,31.0,13.0,-100.00,WSW,237,10.0,22.0,46,0.00,,,0.29,0.000000,,2013-02-01 09:11:00,
2013-02-01 04:32:00,30.0,14.0,-100.00,SW,236,10.0,22.0,51,0.00,,,0.29,0.000000,,2013-02-01 09:32:00,
2013-02-01 04:42:00,30.0,14.0,-100.00,SW,236,10.0,22.0,51,0.00,,,0.29,0.000000,,2013-02-01 09:42:00,
2013-02-01 04:52:00,30.0,14.0,-100.00,SW,236,10.0,22.0,51,0.00,,,0.29,0.000000,,2013-02-01 09:52:00,
2013-02-01 05:01:00,30.0,14.0,-100.00,SW,236,10.0,22.0,51,0.00,,,0.29,0.000000,,2013-02-01 10:01:00,
2013-02-01 05:11:00,30.0,14.0,-100.00,SW,236,10.0,22.0,51,0.00,,,0.29,0.000000,,2013-02-01 10:11:00,
2013-02-01 05:32:00,29.0,13.0,-100.00,SW,230,11.0,29.0,50,0.00,,,0.29,0.000000,,2013-02-01 10:32:00,
2013-02-01 05:43:00,29.0,13.0,-100.00,SW,230,11.0,29.0,50,0.00,,,0.29,0.000000,,2013-02-01 10:43:00,
2013-02-01 05:53:00,29.0,13.0,-100.00,SW,230,11.0,29.0,50,0.00,,,0.29,0.000000,,2013-02-01 10:53:00,
2013-02-01 06:02:00,29.0,13.0,-100.00,SW,230,11.0,29.0,50,0.00,,,0.29,0.000000,,2013-02-01 11:02:00,
2013-02-01 06:11:00,29.0,13.0,-100.00,SW,230,11.0,29.0,50,0.00,,,0.29,0.000000,,2013-02-01 11:11:00,
2013-02-01 06:12:00,29.0,11.0,-100.00,SW,236,10.0,24.0,46,0.00,,,0.27,0.000000,,2013-02-01 11:12:00,
2013-02-01 06:32:00,29.0,11.0,-100.00,SW,236,10.0,24.0,46,0.00,,,0.27,0.000000,,2013-02-01 11:32:00,
2013-02-01 06:42:00,29.0,11.0,-100.00,SW,236,10.0,24.0,46,0.00,,,0.27,0.000000,,2013-02-01 11:42:00,
2013-02-01 06:53:00,29.0,11.0,-100.00,SW,236,10.0,24.0,46,0.00,,,0.27,0.000000,,2013-02-01 11:53:00,
2013-02-01 07:03:00,29.0,11.0,-100.00,SW,236,10.0,24.0,46,0.00,,,0.27,0.000000,,2013-02-01 12:03:00,
2013-02-01 07:12:00,29.0,9.0,-100.00,WSW,237,10.0,19.0,43,0.00,,,0.17,4.000000,,2013-02-01 12:12:00,
2013-02-01 07:32:00,29.0,9.0,-100.00,WSW,237,10.0,19.0,43,0.00,,,0.17,4.000000,,2013-02-01 12:32:00,
2013-02-01 07:42:00,29.0,9.0,-100.00,WSW,237,10.0,19.0,43,0.00,,,0.17,4.000000,,2013-02-01 12:42:00,
2013-02-01 07:52:00,29.0,9.0,-100.00,WSW,237,10.0,19.0,43,0.00,,,0.17,4.000000,,2013-02-01 12:52:00,
2013-02-01 08:02:00,29.0,9.0,-100.00,WSW,237,10.0,19.0,43,0.00,,,0.17,4.000000,,2013-02-01 13:02:00,
2013-02-01 08:12:00,30.0,10.0,-100.00,SW,227,14.0,26.0,42,0.00,,,0.04,115.000000,,2013-02-01 13:12:00,
2013-02-01 08:33:00,30.0,10.0,-100.00,SW,227,14.0,26.0,42,0.00,,,0.04,115.000000,,2013-02-01 13:33:00,
2013-02-01 08:43:00,30.0,10.0,-100.00,SW,227,14.0,26.0,42,0.00,,,0.04,115.000000,,2013-02-01 13:43:00,
2013-02-01 08:53:00,30.0,10.0,-100.00,SW,227,14.0,26.0,42,0.00,,,0.04,115.000000,,2013-02-01 13:53:00,
2013-02-01 09:03:00,30.0,10.0,-100.00,SW,227,14.0,26.0,42,0.00,,,0.04,115.000000,,2013-02-01 14:03:00,
2013-02-01 09:12:00,31.0,11.0,-100.00,WSW,237,12.0,22.0,43,0.00,,,0.01,393.000000,,2013-02-01 14:12:00,
2013-02-01 09:32:00,31.0,11.0,-100.00,WSW,237,12.0,22.0,43,0.00,,,0.01,393.000000,,2013-02-01 14:32:00,
2013-02-01 09:42:00,31.0,11.0,-100.00,WSW,237,12.0,22.0,43,0.00,,,0.01,393.000000,,2013-02-01 14:42:00,
2013-02-01 09:53:00,31.0,11.0,-100.00,WSW,237,12.0,22.0,43,0.00,,,0.01,393.000000,,2013-02-01 14:53:00,
2013-02-01 10:03:00,31.0,11.0,-100.00,WSW,237,12.0,22.0,43,0.00,,,0.01,393.000000,,2013-02-01 15:03:00,
2013-02-01 10:12:00,33.0,11.0,-100.00,WSW,247,8.0,29.0,40,0.00,,,0.00,589.000000,,2013-02-01 15:12:00,
2013-02-01 10:33:00,33.0,11.0,-100.00,WSW,247,8.0,29.0,40,0.00,,,0.00,589.000000,,2013-02-01 15:33:00,
2013-02-01 10:42:00,33.0,11.0,-100.00,WSW,247,8.0,29.0,40,0.00,,,0.00,589.000000,,2013-02-01 15:42:00,
2013-02-01 10:52:00,33.0,11.0,-100.00,WSW,247,8.0,29.0,40,0.00,,,0.00,589.000000,,2013-02-01 15:52:00,
2013-02-01 11:03:00,33.0,11.0,-100.00,WSW,247,8.0,29.0,40,0.00,,,0.00,589.000000,,2013-02-01 16:03:00,
2013-02-01 11:12:00,35.0,14.0,-100.00,West,266,5.0,16.0,41,0.00,,,0.00,580.000000,,2013-02-01 16:12:00,
2013-02-01 11:33:00,35.0,14.0,-100.00,West,266,5.0,16.0,41,0.00,,,0.00,580.000000,,2013-02-01 16:33:00,
2013-02-01 11:43:00,35.0,14.0,-100.00,West,266,5.0,16.0,41,0.00,,,0.00,580.000000,,2013-02-01 16:43:00,
2013-02-01 11:53:00,35.0,14.0,-100.00,West,266,5.0,16.0,41,0.00,,,0.00,580.000000,,2013-02-01 16:53:00,
2013-02-01 12:03:00,35.0,14.0,-100.00,West,266,5.0,16.0,41,0.00,,,0.00,580.000000,,2013-02-01 17:03:00,
2013-02-01 12:12:00,35.0,15.0,-100.00,WNW,287,5.0,15.0,44,0.00,,,0.00,540.000000,,2013-02-01 17:12:00,
2013-02-01 12:32:00,35.0,15.0,-100.00,WNW,287,5.0,15.0,44,0.00,,,0.00,540.000000,,2013-02-01 17:32:00,
2013-02-01 12:42:00,35.0,15.0,-100.00,WNW,287,5.0,15.0,44,0.00,,,0.00,540.000000,,2013-02-01 17:42:00,
2013-02-01 12:53:00,35.0,15.0,-100.00,WNW,287,5.0,15.0,44,0.00,,,0.00,540.000000,,2013-02-01 17:53:00,
2013-02-01 13:03:00,35.0,15.0,-100.00,WNW,287,5.0,15.0,44,0.00,,,0.00,540.000000,,2013-02-01 18:03:00,
2013-02-01 13:12:00,32.0,9.0,-100.00,WSW,252,5.0,12.0,38,0.00,,,0.00,363.000000,,2013-02-01 18:12:00,
2013-02-01 13:33:00,32.0,9.0,-100.00,WSW,252,5.0,12.0,38,0.00,,,0.00,363.000000,,2013-02-01 18:33:00,
2013-02-01 13:42:00,32.0,9.0,-100.00,WSW,252,5.0,12.0,38,0.00,,,0.00,363.000000,,2013-02-01 18:42:00,
2013-02-01 13:53:00,32.0,9.0,-100.00,WSW,252,5.0,12.0,38,0.00,,,0.00,363.000000,,2013-02-01 18:53:00,
2013-02-01 14:03:00,32.0,9.0,-100.00,WSW,252,5.0,12.0,38,0.00,,,0.00,363.000000,,2013-02-01 19:03:00,
2013-02-01 14:42:00,32.0,9.0,-100.00,WNW,301,4.0,11.0,37,0.00,,,0.00,189.000000,,2013-02-01 19:42:00,
2013-02-01 14:52:00,32.0,9.0,-100.00,WNW,301,4.0,11.0,37,0.00,,,0.00,189.000000,,2013-02-01 19:52:00,
2013-02-01 15:02:00,32.0,9.0,-100.00,WNW,301,4.0,11.0,37,0.00,,,0.00,189.000000,,2013-02-01 20:02:00,
2013-02-01 15:11:00,32.0,9.0,-100.00,WNW,301,4.0,11.0,37,0.00,,,0.00,189.000000,,2013-02-01 20:11:00,
2013-02-01 15:12:00,31.0,7.0,-100.00,NW,308,4.0,10.0,35,0.00,,,-99.99,119.000000,,2013-02-01 20:12:00,
2013-02-01 15:32:00,31.0,7.0,-100.00,NW,308,4.0,10.0,35,0.00,,,-99.99,119.000000,,2013-02-01 20:32:00,
2013-02-01 15:42:00,31.0,7.0,-100.00,NW,308,4.0,10.0,35,0.00,,,-99.99,119.000000,,2013-02-01 20:42:00,
2013-02-01 15:52:00,31.0,7.0,-100.00,NW,308,4.0,10.0,35,0.00,,,-99.99,119.000000,,2013-02-01 20:52:00,
2013-02-01 16:02:00,31.0,7.0,-100.00,NW,308,4.0,10.0,35,0.00,,,-99.99,119.000000,,2013-02-01 21:02:00,
2013-02-01 16:32:00,31.0,8.0,-100.00,WNW,282,4.0,10.0,37,0.00,,,0.00,74.000000,,2013-02-01 21:32:00,
2013-02-01 16:42:00,31.0,8.0,-100.00,WNW,282,4.0,10.0,37,0.00,,,0.00,74.000000,,2013-02-01 21:42:00,
2013-02-01 16:53:00,31.0,8.0,-100.00,WNW,282,4.0,10.0,37,0.00,,,0.00,74.000000,,2013-02-01 21:53:00,
2013-02-01 17:03:00,31.0,8.0,-100.00,WNW,282,4.0,10.0,37,0.00,,,0.00,74.000000,,2013-02-01 22:03:00,
2013-02-01 17:11:00,31.0,8.0,-100.00,WNW,282,4.0,10.0,37,0.00,,,0.00,74.000000,,2013-02-01 22:11:00,
2013-02-01 17:32:00,30.0,9.0,-100.00,WNW,282,4.0,9.0,40,0.00,,,0.00,13.000000,,2013-02-01 22:32:00,
2013-02-01 17:42:00,30.0,9.0,-100.00,WNW,282,4.0,9.0,40,0.00,,,0.00,13.000000,,2013-02-01 22:42:00,
2013-02-01 17:52:00,30.0,9.0,-100.00,WNW,282,4.0,9.0,40,0.00,,,0.00,13.000000,,2013-02-01 22:52:00,
2013-02-01 18:02:00,30.0,9.0,-100.00,WNW,282,4.0,9.0,40,0.00,,,0.00,13.000000,,2013-02-01 23:02:00,
2013-02-01 18:11:00,30.0,9.0,-100.00,WNW,282,4.0,9.0,40,0.00,,,0.00,13.000000,,2013-02-01 23:11:00,
2013-02-01 18:32:00,30.0,8.0,-100.00,WNW,285,5.0,10.0,38,0.00,,,0.00,0.000000,,2013-02-01 23:32:00,
2013-02-01 18:42:00,30.0,8.0,-100.00,WNW,285,5.0,10.0,38,0.00,,,0.00,0.000000,,2013-02-01 23:42:00,
2013-02-01 18:52:00,30.0,8.0,-100.00,WNW,285,5.0,10.0,38,0.00,,,0.00,0.000000,,2013-02-01 23:52:00,
2013-02-01 19:02:00,30.0,8.0,-100.00,WNW,285,5.0,10.0,38,0.00,,,0.00,0.000000,,2013-02-02 00:02:00,
2013-02-01 19:11:00,30.0,8.0,-100.00,WNW,285,5.0,10.0,38,0.00,,,0.00,0.000000,,2013-02-02 00:11:00,
2013-02-01 19:32:00,29.0,9.0,-100.00,WNW,284,6.0,12.0,43,0.00,,,0.00,0.000000,,2013-02-02 00:32:00,
2013-02-01 19:42:00,29.0,9.0,-100.00,WNW,284,6.0,12.0,43,0.00,,,0.00,0.000000,,2013-02-02 00:42:00,
2013-02-01 19:52:00,29.0,9.0,-100.00,WNW,284,6.0,12.0,43,0.00,,,0.00,0.000000,,2013-02-02 00:52:00,
2013-02-01 20:02:00,29.0,9.0,-100.00,WNW,284,6.0,12.0,43,0.00,,,0.00,0.000000,,2013-02-02 01:02:00,
2013-02-01 20:11:00,29.0,9.0,-100.00,WNW,284,6.0,12.0,43,0.00,,,0.00,0.000000,,2013-02-02 01:11:00,
2013-02-01 20:32:00,28.0,7.0,-100.00,NW,307,7.0,13.0,40,0.00,,,0.00,0.000000,,2013-02-02 01:32:00,
2013-02-01 20:42:00,28.0,7.0,-100.00,NW,307,7.0,13.0,40,0.00,,,0.00,0.000000,,2013-02-02 01:42:00,
2013-02-01 20:52:00,28.0,7.0,-100.00,NW,307,7.0,13.0,40,0.00,,,0.00,0.000000,,2013-02-02 01:52:00,
2013-02-01 21:01:00,28.0,7.0,-100.00,NW,307,7.0,13.0,40,0.00,,,0.00,0.000000,,2013-02-02 02:01:00,
2013-02-01 21:11:00,28.0,7.0,-100.00,NW,307,7.0,13.0,40,0.00,,,0.00,0.000000,,2013-02-02 02:11:00,
2013-02-01 21:42:00,27.0,5.0,-100.00,NW,320,6.0,14.0,39,0.00,,,0.00,0.000000,,2013-02-02 02:42:00,
2013-02-01 21:52:00,27.0,5.0,-100.00,NW,320,6.0,14.0,39,0.00,,,0.00,0.000000,,2013-02-02 02:52:00,
2013-02-01 22:02:00,27.0,5.0,-100.00,NW,320,6.0,14.0,39,0.00,,,0.00,0.000000,,2013-02-02 03:02:00,
2013-02-01 22:11:00,27.0,5.0,-100.00,NW,320,6.0,14.0,39,0.00,,,0.00,0.000000,,2013-02-02 03:11:00,
2013-02-01 22:42:00,27.0,9.0,-100.00,WNW,284,5.0,13.0,45,0.00,,,0.00,0.000000,,2013-02-02 03:42:00,
2013-02-01 22:52:00,27.0,9.0,-100.00,WNW,284,5.0,13.0,45,0.00,,,0.00,0.000000,,2013-02-02 03:52:00,
2013-02-01 23:02:00,27.0,9.0,-100.00,WNW,284,5.0,13.0,45,0.00,,,0.00,0.000000,,2013-02-02 04:02:00,
2013-02-01 23:11:00,27.0,9.0,-100.00,WNW,284,5.0,13.0,45,0.00,,,0.00,0.000000,,2013-02-02 04:11:00,
2013-02-01 23:12:00,26.0,9.0,-100.00,West,270,5.0,14.0,47,0.00,,,0.00,0.000000,,2013-02-02 04:12:00,
2013-02-01 23:33:00,26.0,9.0,-100.00,West,270,5.0,14.0,47,0.00,,,0.00,0.000000,,2013-02-02 04:33:00,
2013-02-01 23:42:00,26.0,9.0,-100.00,West,270,5.0,14.0,47,0.00,,,0.00,0.000000,,2013-02-02 04:42:00,
2013-02-01 23:52:00,26.0,9.0,-100.00,West,270,5.0,14.0,47,0.00,,,0.00,0.000000,,2013-02-02 04:52:00,